Concord, NC

6:59 AM EDT on May 25, 2017 (GMT -0400)
Concord Regional

Weather History for KJQF - December, 2012

Change the Weather History Date:

Sunday, December 9, 2012

  Actual Average (KCLT) Record (KCLT)
Temperature  
Mean Temperature 60 °F -  
Max Temperature 68 °F 55 °F 78 °F (1943)
Min Temperature 51 °F 36 °F 14 °F (2006)
Degree Days  
Heating Degree Days 6    
Growing Degree Days 10 (Base 50)    
Moisture  
Dew Point 55 °F    
Average Humidity 92    
Maximum Humidity 100    
Minimum Humidity 77    
Precipitation  
Precipitation 0.00 in - - ()
Sea Level Pressure  
Sea Level Pressure 30.09 in    
Wind  
Wind Speed 0 mph (SW)    
Max Wind Speed 7 mph    
Max Gust Speed -    
Visibility 6 miles    
Events Rain    
Averages and records for this station are not official NWS values.
T = Trace of Precipitation, MM = Missing Value Source: NWS Daily Summary

Daily Weather History Graph

Daily Weather History Graph

Search for Another Location

Airport or City:

Trip Planner

Search our weather history database for the weather conditions in past years. The results will help you decide how hot, cold, wet, or windy it might be!

Date:

Astronomy

Dec. 09, 2012 Rise Set
Actual Time 7:20 AM EST 5:10 PM EST
Civil Twilight 6:52 AM EST 5:38 PM EST
Nautical Twilight 6:20 AM EST 6:10 PM EST
Astronomical Twilight 5:49 AM EST 6:41 PM EST
Moon 2:58 AM EST (12/9) 2:10 PM EST (12/9)
Length of Visible Light 10h 46m
Length of Day
9h 49m
Waning Crescent, 19% of the Moon is Illuminated
Dec 9
Waning Crescent
Dec 13
New
Dec 20
First Quarter
Dec 28
Full
Jan 4
Last Quarter

Hourly Weather History & Observations

Time (EST) Temp. Dew Point Humidity Pressure Visibility Wind Dir Wind Speed Gust Speed Precip Events Conditions
12:15 AM 51.8 °F 50.0 °F 94% 30.10 in 10.0 mi Calm Calm - N/A   Scattered Clouds
12:35 AM 51.8 °F 50.0 °F 94% 30.11 in 10.0 mi Calm Calm - N/A   Scattered Clouds
12:55 AM 53.6 °F 50.0 °F 88% 30.10 in 10.0 mi Calm Calm - N/A   Mostly Cloudy
1:15 AM 53.6 °F 51.8 °F 94% 30.10 in 10.0 mi Calm Calm - N/A   Overcast
1:35 AM 55.4 °F 51.8 °F 88% 30.10 in 10.0 mi Calm Calm - N/A   Overcast
1:55 AM 55.4 °F 51.8 °F 88% 30.11 in 10.0 mi Calm Calm - N/A   Overcast
2:15 AM 55.4 °F 51.8 °F 88% 30.11 in 7.0 mi Calm Calm - N/A   Overcast
2:35 AM 55.4 °F 53.6 °F 94% 30.11 in 10.0 mi Calm Calm - N/A   Overcast
2:55 AM 55.4 °F 53.6 °F 94% 30.11 in 7.0 mi Calm Calm - N/A   Overcast
3:15 AM 53.6 °F 53.6 °F 100% 30.11 in 5.0 mi Calm Calm - N/A   Overcast
3:35 AM 53.6 °F 51.8 °F 94% 30.11 in 4.0 mi Calm Calm - N/A   Overcast
3:55 AM 53.6 °F 51.8 °F 94% 30.11 in 5.0 mi Calm Calm - N/A   Overcast
4:15 AM 53.6 °F 51.8 °F 94% 30.11 in 3.0 mi Calm Calm - N/A   Overcast
4:35 AM 53.6 °F 51.8 °F 94% 30.11 in 5.0 mi Calm Calm - N/A   Overcast
4:55 AM 53.6 °F 51.8 °F 94% 30.11 in 4.0 mi Calm Calm - N/A   Overcast
5:15 AM 53.6 °F 53.6 °F 100% 30.11 in 7.0 mi Calm Calm - N/A   Overcast
5:35 AM 53.6 °F 51.8 °F 94% 30.12 in 5.0 mi Calm Calm - N/A   Overcast
5:55 AM 53.6 °F 51.8 °F 94% 30.12 in 5.0 mi Calm Calm - N/A   Overcast
6:15 AM 53.6 °F 53.6 °F 100% 30.12 in 7.0 mi Calm Calm - N/A   Overcast
6:35 AM 55.4 °F 53.6 °F 94% 30.13 in 7.0 mi Calm Calm - N/A   Overcast
6:55 AM 55.4 °F 53.6 °F 94% 30.13 in 7.0 mi Calm Calm - N/A   Mostly Cloudy
7:55 AM 55.4 °F 53.6 °F 94% 30.14 in 7.0 mi Calm Calm - N/A   Mostly Cloudy
8:55 AM 57.2 °F 55.4 °F 94% 30.15 in 10.0 mi Calm Calm - N/A   Mostly Cloudy
9:45 AM 59.0 °F 55.4 °F 88% 30.16 in 10.0 mi Calm Calm - N/A   Mostly Cloudy
10:55 AM 62.6 °F 55.4 °F 77% 30.15 in 5.0 mi Calm Calm - N/A Rain Rain
11:55 AM 62.6 °F 59.0 °F 88% 30.13 in 5.0 mi Calm Calm - N/A   Overcast
12:55 PM 62.6 °F 60.8 °F 94% 30.11 in 3.0 mi Calm Calm - N/A   Overcast
1:55 PM 66.2 °F 60.8 °F 83% 30.09 in 3.0 mi SW 6.9 mph - N/A   Overcast
2:55 PM 66.2 °F 60.8 °F 83% 30.08 in 4.0 mi SW 6.9 mph - N/A   Mostly Cloudy
3:55 PM 68.0 °F 60.8 °F 78% 30.08 in 7.0 mi SW 6.9 mph - N/A   Mostly Cloudy
4:55 PM 66.2 °F 59.0 °F 78% 30.09 in 10.0 mi SW 5.8 mph - N/A   Scattered Clouds
5:55 PM 62.6 °F 59.0 °F 88% 30.08 in 10.0 mi Calm Calm - N/A   Mostly Cloudy
6:55 PM 60.8 °F 57.2 °F 88% 30.08 in 10.0 mi Calm Calm - N/A   Scattered Clouds
7:55 PM 60.8 °F 57.2 °F 88% 30.08 in - Calm Calm - N/A   Clear
8:15 PM 57.2 °F 55.4 °F 94% 30.07 in 4.0 mi Calm Calm - N/A   Clear
8:35 PM 57.2 °F 55.4 °F 94% 30.06 in 3.0 mi Calm Calm - N/A   Clear
8:55 PM 57.2 °F 55.4 °F 94% 30.06 in 5.0 mi Calm Calm - N/A   Mostly Cloudy
9:15 PM 59.0 °F 57.2 °F 94% 30.06 in 5.0 mi Calm Calm - N/A   Scattered Clouds
9:35 PM 59.0 °F 57.2 °F 94% 30.05 in 5.0 mi Calm Calm - N/A   Clear
9:55 PM 57.2 °F 55.4 °F 94% 30.05 in 1.8 mi Calm Calm - N/A   Unknown
10:15 PM 59.0 °F 57.2 °F 94% 30.05 in 4.0 mi Calm Calm - N/A   Clear
10:35 PM 57.2 °F 55.4 °F 94% 30.05 in 0.8 mi Calm Calm - N/A   Unknown
10:55 PM 55.4 °F 55.4 °F 100% 30.04 in 0.2 mi Calm Calm - N/A   Overcast
11:15 PM 53.6 °F 53.6 °F 100% 30.03 in 0.2 mi Calm Calm - N/A   Overcast
11:35 PM 55.4 °F 53.6 °F 94% 30.03 in 0.8 mi Calm Calm - N/A   Overcast
11:55 PM 55.4 °F 53.6 °F 94% 30.02 in 0.8 mi Calm Calm - N/A   Overcast